Ocoee 3 Observed Data For Previous 48 Hours

Caption
Day and Hour Reservoir Elevation (behind dam)* Tailwater Elevation (below dam)* Average Hourly Discharge*
3/18/2019 2 AM EDT 1,431.74 1,124.29 3,760
3/18/2019 3 AM EDT 1,431.81 1,123.94 3,755
3/18/2019 4 AM EDT 1,431.87 1,123.92 3,764
3/18/2019 5 AM EDT 1,431.93 1,124.09 3,761
3/18/2019 6 AM EDT 1,431.99 1,123.94 3,764
3/18/2019 7 AM EDT 1,432.05 1,124.13 3,762
3/18/2019 8 AM EDT 1,432.11 1,124.19 3,765
3/18/2019 9 AM EDT 1,432.16 1,124.10 3,764
3/18/2019 10 AM EDT 1,432.27 1,123.96 3,811
3/18/2019 11 AM EDT 1,432.65 1,123.60 3,976
3/18/2019 12 PM EDT 1,432.82 1,123.36 3,744
3/18/2019 1 PM EDT 1,432.95 1,123.73 3,758
3/18/2019 2 PM EDT 1,433.09 1,123.79 3,753
3/18/2019 3 PM EDT 1,433.25 1,123.68 3,753
3/18/2019 4 PM EDT 1,433.38 1,123.58 3,756
3/18/2019 5 PM EDT 1,433.53 1,123.73 3,764
3/18/2019 6 PM EDT 1,433.64 1,123.53 3,770
3/18/2019 7 PM EDT 1,433.73 1,123.80 3,767
3/18/2019 8 PM EDT 1,433.76 1,123.75 3,765
3/18/2019 9 PM EDT 1,433.75 1,123.63 3,763
3/18/2019 10 PM EDT 1,433.72 1,123.80 3,765
3/18/2019 11 PM EDT 1,433.70 1,123.68 3,760
3/19/2019 12 AM EDT 1,433.66 1,123.56 3,763
3/19/2019 1 AM EDT 1,433.63 1,123.65 3,765
3/19/2019 2 AM EDT 1,433.60 1,123.62 3,767
3/19/2019 3 AM EDT 1,433.57 1,123.42 3,763
3/19/2019 4 AM EDT 1,433.54 1,123.61 3,768
3/19/2019 5 AM EDT 1,433.50 1,123.55 3,761
3/19/2019 6 AM EDT 1,433.46 1,123.67 3,758
3/19/2019 7 AM EDT 1,433.42 1,123.61 3,763
3/19/2019 8 AM EDT 1,433.39 1,123.67 3,752
3/19/2019 9 AM EDT 1,433.35 1,123.51 3,750
3/19/2019 10 AM EDT 1,433.31 1,123.45 3,763
3/19/2019 11 AM EDT 1,433.27 1,123.50 3,753
3/19/2019 12 PM EDT 1,433.32 1,123.63 3,764
3/19/2019 1 PM EDT 1,433.28 1,123.55 3,759
3/19/2019 2 PM EDT 1,433.44 1,123.46 2,914
3/19/2019 3 PM EDT 1,433.56 1,122.81 2,890
3/19/2019 4 PM EDT 1,433.69 1,122.76 2,893
3/19/2019 5 PM EDT 1,433.81 1,122.73 2,881
3/19/2019 6 PM EDT 1,433.94 1,122.83 2,880
3/19/2019 7 PM EDT 1,434.06 1,122.78 2,884
3/19/2019 8 PM EDT 1,434.17 1,122.73 2,878
3/19/2019 9 PM EDT 1,434.29 1,122.85 2,887
3/19/2019 10 PM EDT 1,434.44 1,122.86 2,987
3/19/2019 11 PM EDT 1,434.15 1,122.73 4,156
3/20/2019 12 AM EDT 1,433.85 1,124.61 4,640
3/20/2019 1 AM EDT 1,433.54 1,124.78 4,650
3/20/2019 2 AM EDT 1,433.21 1,124.53 4,665
3/20/2019 3 AM EDT 1,432.87 1,124.67 4,665
3/20/2019 4 AM EDT 1,432.63 1,124.49 4,201
3/20/2019 5 AM EDT 1,432.49 1,123.98 3,692
3/20/2019 6 AM EDT 1,432.34 1,123.77 3,682
3/20/2019 7 AM EDT 1,432.19 1,123.92 3,690
3/20/2019 8 AM EDT 1,432.03 1,124.02 3,688
3/20/2019 9 AM EDT 1,431.88 1,123.87 3,686

Elevations are in feet above sea level. Discharges are in cubic feet per second and are reported at the end of the hour.